Tracking 30292 objects as of 28-Apr-2025
HD Live streaming from Space Station
objects crossing your sky now

YZ-1 R/B

Track YZ-1 R/B now!


NORAD ID: 44544
Int'l Code: 2019-061C
Perigee: 22,033.0 km
Apogee: 22,226.8 km
Inclination: 54.5 °
Period: 798.1 minutes
Semi major axis: 28500 km
RCS: Unknown
Launch date: September 22, 2019
Source: People's Republic of China (PRC)
Launch site: Xichang Space Center, China (XSC)

Note: This is a ROCKET BODY
Your satellite tracking list
Your tracking list is empty




NASA's NSSDC Master Catalog

Two Line Element Set (TLE):
1 44544U 19061C   25117.39191884  .00000041  00000-0  00000-0 0  9992
2 44544  54.4656 201.5606 0034003 252.0161 107.6698  1.80432457 36886
Source of the keplerian elements: AFSPC